Location: Caltech
(34.1382°N, 118.1253°W)
Time: 04:46:46
(UTC-07:00)

Meteor 2-4 Rocket - Visible Passes

Search period start: 22 August 2014 00:00
Search period end: 01 September 2014 00:00
Orbit: 800 x 908 km, 81.2° (Epoch: 21 August)

Date Brightness Start Highest point End Pass type
(mag) Time Alt. Az. Time Alt. Az. Time Alt. Az.
22 Aug 3.8 20:09:40 10° N 20:15:35 90° W 20:21:19 10° S visible
23 Aug 3.8 19:58:47 10° N 20:04:41 85° E 20:10:25 10° S visible
24 Aug 3.8 19:47:54 10° N 19:53:48 80° E 19:59:30 10° S visible
24 Aug 6.9 21:35:07 10° WNW 21:35:53 10° W 21:36:39 10° W visible
25 Aug 6.8 21:23:26 10° WNW 21:25:02 11° W 21:26:38 10° W visible
26 Aug 6.7 21:12:04 10° WNW 21:14:12 12° W 21:16:18 10° WSW visible
27 Aug 6.7 21:00:50 10° WNW 21:03:21 13° W 21:05:50 10° WSW visible
28 Aug 6.7 20:49:39 10° NW 20:52:30 14° W 20:55:19 10° WSW visible
29 Aug 6.6 20:38:30 10° NW 20:41:39 15° W 20:44:44 10° WSW visible
30 Aug 6.6 20:27:24 10° NW 20:30:47 16° W 20:34:07 10° WSW visible
31 Aug 6.6 20:16:20 10° NW 20:19:56 17° W 20:23:29 10° SW visible
